User: anonymous   Login
Location: Unspecified
(0.0000°N, 0.0000°E)
Time: 23:41:08
(UTC+00:00)
Language:

TET - Orbit

View from above orbital plane
View from above orbital plane
View from above satellite
View from above satellite

Ground track
Ground track

The orbit data is extracted from the following two-line orbital elements,

1 38710U 12039D   22267.20753997  .00114334  00000-0  52856-3 0  9990
2 38710  97.5022 355.9973 0000589 176.2284 183.8989 15.83192145572963
Epoch (UTC): 24 September 2022 04:58:51
Eccentricity: 0.0000589
inclination: 97.5022°
perigee height: 321 km
apogee height: 322 km
right ascension of ascending node: 355.9973°
argument of perigee: 176.2284°
revolutions per day: 15.83192145
mean anomaly at epoch: 183.8989°
orbit number at epoch: 57296

The dashed part of the orbit path shows where the satellite is in the earth's shadow,  

DLR